Regional Weather Roundup
Issued by NWS Upton, NY

Current Version | Previous Version | Graphics & Text | Print | Product List | Glossary Off
Versions: 1 2 3 4 5 6 7 8 9 10 11 12 13 14 15 16 17 18 19 20 21 22 23 24 25 26 27

000
ASUS41 KOKX 180308
RWROKX

REGIONAL WEATHER ROUNDUP
NATIONAL WEATHER SERVICE NEW YORK NY
1100 PM EDT THU AUG 17 2017

NOTE: "FAIR" INDICATES FEW OR NO CLOUDS BELOW 12,000 FEET WITH NO
SIGNIFICANT WEATHER AND/OR OBSTRUCTIONS TO VISIBILITY.

NYZ071-072-176-178-NJZ106-104-180400-
NEW YORK CITY METRO AREA

CITY           SKY/WX    TMP DP  RH WIND       PRES   REMARKS
Central Park   MOCLDY    75  70  84 CALM      30.02R
Bronx Bot Gard   N/A     73  68  83 SE1       29.99F
LaGuardia APRT CLOUDY    75  72  90 S8        29.98R
Kennedy INTL   MOCLDY    75  74  96 SE8       30.00R
Breezy Point     N/A     73 N/A N/A SE6         N/A
Newark/Liberty MOCLDY    73  72  96 SE7       29.98S
Teterboro      CLOUDY    76  70  82 S5        29.97S
$$

NYZ177-179-078>081-180400-
LONG ISLAND NEW YORK

CITY           SKY/WX    TMP DP  RH WIND       PRES   REMARKS
Jones Beach      N/A     73 N/A N/A S6          N/A
Matinecock PT    N/A     70 N/A N/A E1          N/A
Farmingdale    MOCLDY    73  71  93 S9        30.00R
MacArthur/ISP  CLOUDY    73  70  90 SE6       30.00S
Shirley        CLOUDY    73  70  90 SE6       30.01S
Mt Sinai Harb    N/A    N/A N/A N/A S9          N/A
Westhampton    MOCLDY    65  62  90 SE5       30.03R
East Hampton   FAIR      61  58  91 CALM      30.01S
Montauk          N/A     70  64  81 S3        30.03R
$$

NYZ052-065-067-180400-
HUDSON VALLEY

CITY           SKY/WX    TMP DP  RH WIND       PRES   REMARKS
White Plains   CLOUDY    69  64  84 SE5       30.00R
Larchmont Harb   N/A     72 N/A N/A E2          N/A
Croton On Huds   N/A     73 N/A N/A SE1         N/A
Newburgh       MOCLDY    73  64  73 VRB7      30.00R
Montgomery     CLOUDY    71  65  81 SE3       29.97S
Poughkeepsie   CLOUDY    71  61  70 SE5       29.97R
Albany         CLOUDY    70  55  59 CALM      29.96S
$$

NJZ001-105-106-008-010-013-015-019>022-104-180400-
NEW JERSEY

CITY           SKY/WX    TMP DP  RH WIND       PRES   REMARKS
Newark/Liberty MOCLDY    73  72  96 SE7       29.98S
Teterboro      CLOUDY    76  70  82 S5        29.97S
Caldwell       PTCLDY    74  72  93 CALM      29.99S
Somerville     PTCLDY    73  71  93 CALM      29.96S
Linden         CLOUDY    75  71  87 CALM      29.98S
Perth Amboy      N/A     75 N/A N/A SE7         N/A
Sussex         CLOUDY    71  68  90 CALM      29.98S
Andover          N/A     73  67  81 CALM      29.99S
Trenton        CLOUDY    76  69  79 S7        29.97R
Millville      PTCLDY    76  75  97 CALM      29.98R
Atlantic City  PTCLDY    78  72  81 S7        29.99R
Wrightstown    MOCLDY    74  72  91 S3        29.95S
Toms River     CLOUDY    75  73  93 S5        29.99S
Belmar         PTCLDY    75  73  93 SE5       30.00S
$$

PAZ047>061-062-071-180400-
EASTERN PENNSYLVANIA

CITY           SKY/WX    TMP DP  RH WIND       PRES   REMARKS
Philadelphia   PTCLDY    77  71  82 S7        29.97R
Allentown      CLOUDY    79  68  69 S7        29.97R
Scranton       CLOUDY    77  67  71 CALM      29.95R
$$

CTZ002-004>006-009-010-012-RIZ004-006-007-MAZ004-011-015-180400-
SOUTHERN NEW ENGLAND
 IN CT

CITY           SKY/WX    TMP DP  RH WIND       PRES   REMARKS
Bradley INTL   MOCLDY    70  58  65 S7        30.00R
Hartford       CLEAR     69  59  70 S5        30.00R
Danbury        CLEAR     69  62  78 CALM      30.02R
Wtrbury/Oxford CLEAR     66  61  84 S6        30.03R
Norwalk Harbor   N/A     72 N/A N/A SE5         N/A
Bridgeport     PTCLDY    72  65  78 S3        30.00S
Meriden        CLEAR     64  60  87 CALM      30.01R
New Haven      PTCLDY    70  64  81 S5        30.01R
Chester        NOT AVBL
Groton         CLEAR     65  61  87 CALM      30.01R
Wilimantic     CLEAR     65  60  84 CALM      30.02R

 IN RI

CITY           SKY/WX    TMP DP  RH WIND       PRES   REMARKS
Providence     CLOUDY    65  58  78 SW3       30.02S
Block Island   CLEAR     68  62  81 S6        30.03R
Westerly       CLEAR     64  61  90 CALM      30.03R
 IN MA

CITY           SKY/WX    TMP DP  RH WIND       PRES   REMARKS
Boston         CLOUDY    71  56  58 S8        30.00R
Worcester      CLOUDY    64  55  72 SW7       30.03S
Westfield      CLOUDY    67  61  81 S5        29.99S
Provincetown   PTCLDY    67  62  84 SW7       30.02R
Nantucket      PTCLDY    62  60  93 S7        30.03F
$$

ANZ330-335-338-340-345-350-353-355-180400-
COASTAL MARINE OBSERVATIONS


STATION/POSITION TIME  SKY/WX   TEMP    WIND        PRES    VSBY  WAVE
                                AIR SEA DIR/SP/G                  HT/PER
                 (UTC)          (F)     (DEG/KT/KT) (MB)    (MI)  (FT/S)
NY HARB ENTRANCE 0250            75 76  170/ 10/ 10 1015.1          2/ 7
GREAT SOUTH BAY  0230            74 78  130/  8/ 10   N/A
23 SSW MONTAUK P 0150            71 71              1016.6          2/ 8
15 E BARNEGAT LI 0200               77                N/A           3/ 8
HUDSON CANYON    0150            75 76  170/  8/ 10 1015.5          3/ 8
KINGS POINT      0224            73 74  190/  5/  7 1015.5
EXECUTION ROCKS  NOT AVBL
WESTERN LI SOUND NOT AVBL
CENTRAL LI SOUND NOT AVBL
EASTERN LI SOUND NOT AVBL
ROBBINS REEF     0230                   150/ 12/ 14 1015.9
$$


>>>>>>>>>>>>>>>>>>>>>>>>>>>> KEY <<<<<<<<<<<<<<<<<<<<<<<<<<<
>                                                          <
>     SKY/WX - Sky Condition/Present Weather               <
>     TMP    - Temperature in Fahrenheit                   <
>     DP     - Dew Point in Fahrenheit                     <
>     RH     - Relative Humidity in Percent                <
>     WIND   - Direction (from) and Speed in MPH           <
>     PRES   - Mean Sea Level Pressure (inches of Hg)      <
>     WCI    - Wind Chill Index                            <
>     VSB    - VISIBILITY IN MILES                         <
>     HX     - HEAT INDEX                                  <
>     TC     - TEMPERATURE IN CELSIUS                      <
>     VRB    - VARIABLE WIND DIRECTION                     <
>                                                          <
>>>>>>>>>>>>>>>>>>>>>>>>>>>> KEY <<<<<<<<<<<<<<<<<<<<<<<<<<<




USA.gov is the U.S. government's official web portal to all federal, state and local government web resources and services.